Weather reports worldwide

Advertisment
Zwiesel, Germany (10796): temperature & dewpoint: 12.10.2018 03:00:00 - 18.10.2018 03:00:00 (CEST)Zwiesel, Germany (10796): temperature 5cm & temperature -5cm: 12.10.2018 03:00:00 - 18.10.2018 03:00:00 (CEST)Zwiesel, Germany (10796): temperature -20cm & temperature -100cm: 12.10.2018 03:00:00 - 18.10.2018 03:00:00 (CEST)Zwiesel, Germany (10796): wind speed & gusts: 12.10.2018 03:00:00 - 18.10.2018 03:00:00 (CEST)Zwiesel, Germany (10796): wind direction: 12.10.2018 03:00:00 - 18.10.2018 03:00:00 (CEST)Zwiesel, Germany (10796): reduced air pressure: 12.10.2018 03:00:00 - 18.10.2018 03:00:00 (CEST)Zwiesel, Germany (10796): visibility: 12.10.2018 03:00:00 - 18.10.2018 03:00:00 (CEST)Zwiesel, Germany (10796): sunshine duration: 12.10.2018 03:00:00 - 18.10.2018 03:00:00 (CEST)Zwiesel, Germany (10796): precipitation: 12.10.2018 03:00:00 - 18.10.2018 03:00:00 (CEST)
Date & Time tt [°C] td [°C] tt 5cm [°C] tt -5cm [°C] tt -20cm [°C] tt -100cm [°C] ff [km/h] ff [kn] fx [km/h] fx [kn] dd ppp [hPa] vv [km] sd [min] rr [mm]
18.10.2018 03:00:00 4,7 4,3 1,9 8,4 10,8 12,3 2 1 5 3 N 1021,8 4,1 0 0,0
18.10.2018 02:00:00 5,2 4,6 2,4 8,9 11,0 12,3 3 1 5 3 SW 1021,8 7 0 0,0
18.10.2018 01:00:00 6,0 5,6 3,0 9,5 11,2 12,3 0 0 5 3 N 1021,6 4,1 0 0,0
18.10.2018 00:00:00 6,5 5,6 3,7 10,2 11,4 12,3 3 1 5 3 E 1021,5 9 0 0,0
17.10.2018 23:00:00 8,1 7,0 4,9 10,9 11,6 12,3 3 1 6 3 SE 1021,1 13 0 0,0
17.10.2018 22:00:00 9,1 7,2 6,2 11,7 11,7 12,3 5 3 9 5 E 1020,7 12 0 0,0
17.10.2018 21:00:00 11,1 8,6 7,7 12,5 11,7 12,3 5 3 15 8 ENE 1019,9 14 0 0,0
17.10.2018 20:00:00 12,4 9,0 8,6 13,4 11,7 12,3 4 2 15 8 NNE 1019,3 16 0 0,0
17.10.2018 19:00:00 14,5 9,0 10,3 14,4 11,5 12,3 6 3 9 5 ENE 1018,4 20 0 0,0
17.10.2018 18:00:00 15,9 9,0 14,7 15,3 11,1 12,3 7 4 16 9 NNE 1017,9 22 51 0,0
17.10.2018 17:00:00 18,1 9,0 18,7 15,7 10,7 12,3 11 6 22 12 NNW 1017,1 25 60 0,0
17.10.2018 16:00:00 19,6 7,0 22,9 15,2 10,2 12,3 7 4 14 8 SW 1016,8 22 60 0,0
17.10.2018 15:00:00 19,2 6,8 21,7 14,5 9,8 12,4 8 4 13 7 WSW 1017,1 16 60 0,0
17.10.2018 14:00:00 18,6 7,0 20,9 13,5 9,4 12,4 8 4 11 6 WSW 1017,7 18 60 0,0
17.10.2018 13:00:00 17,8 8,1 19,8 12,0 9,2 12,4 3 2 11 6 WSW 1018,4 13 60 0,0
17.10.2018 12:00:00 15,8 7,5 17,7 10,3 9,1 12,4 4 2 6 4 SSW 1019,5 13 60 0,0
17.10.2018 11:00:00 12,4 6,6 12,7 8,5 9,1 12,4 4 2 5 3 W 1020,5 13 60 0,0
17.10.2018 10:00:00 8,8 5,2 8,5 7,3 9,2 12,4 2 1 5 3 SW 1021,5 11 42 0,0
17.10.2018 09:00:00 5,5 4,1 5,3 6,9 9,4 12,4 2 1 4 2 NNW 1022,4 6 31 0,0
17.10.2018 08:00:00 4,4 4,1 2,6 6,9 9,6 12,4 0 0 6 3 N 1022,5 4,4 0 0,0
17.10.2018 07:00:00 4,5 4,0 2,4 7,2 9,8 12,4 2 1 5 3 W 1022,3 5 0 0,0
17.10.2018 06:00:00 4,6 4,1 2,0 7,6 9,9 12,4 3 1 5 3 NW 1022,1 6 0 0,0
17.10.2018 05:00:00 5,1 4,5 2,7 8,0 10,1 12,4 1 1 4 2 NNE 1021,9 4,2 0 0,0
17.10.2018 04:00:00 6,1 5,6 4,7 8,1 10,3 12,4 2 1 5 3 SSW 1021,8 9 0 0,0
17.10.2018 03:00:00 5,4 4,8 3,2 8,4 10,5 12,4 3 2 5 3 SE 1022,2 6 0 0,0
17.10.2018 02:00:00 6,0 5,4 3,4 8,8 10,7 12,4 3 2 5 3 E 1022,0 6 0 0,0
17.10.2018 01:00:00 6,1 5,4 4,0 9,2 10,9 12,4 3 1 7 4 SSE 1022,2 8 0 0,0
17.10.2018 00:00:00 7,0 5,9 3,9 9,7 11,1 12,4 5 3 7 4 SE 1022,0 9 0 0,0
16.10.2018 23:00:00 7,7 6,5 4,0 10,4 11,3 12,4 4 2 6 3 NNE 1021,9 10 0 0,0
16.10.2018 22:00:00 8,2 6,5 4,9 11,1 11,4 12,4 4 2 7 4 NNW 1021,9 11 0 0,0
16.10.2018 21:00:00 10,0 7,4 5,7 11,9 11,4 12,4 3 2 6 3 NNE 1021,0 14 0 0,0
16.10.2018 20:00:00 11,1 7,6 8,0 12,6 11,4 12,4 3 1 6 3 SW 1020,6 17 0 0,0
16.10.2018 19:00:00 12,7 8,0 8,7 13,5 11,2 12,4 2 1 6 3 NNE 1019,8 17 0 0,0
16.10.2018 18:00:00 15,7 7,5 11,9 14,3 10,9 12,4 2 1 10 5 SSW 1018,5 26 35 0,0
16.10.2018 17:00:00 18,9 6,4 19,5 14,6 10,5 12,4 5 3 13 7 SSW 1017,6 29 60 0,0
16.10.2018 16:00:00 19,0 5,7 21,1 14,6 10,0 12,4 8 4 18 10 SSW 1017,6 28 60 0,0
16.10.2018 15:00:00 19,2 6,3 21,6 14,1 9,6 12,4 10 5 18 10 SW 1017,5 37 60 0,0
16.10.2018 14:00:00 18,7 5,7 20,9 13,1 9,2 12,4 11 6 20 11 WSW 1017,8 21 60 0,0
16.10.2018 13:00:00 18,1 5,7 20,3 11,7 9,0 12,4 9 5 16 9 SW 1018,0 21 60 0,0
16.10.2018 12:00:00 16,6 5,6 18,2 9,9 8,9 12,4 6 3 10 5 W 1018,5 34 60 0,0
16.10.2018 11:00:00 13,0 6,1 14,3 8,0 8,9 12,4 4 2 6 3 SW 1019,2 32 60 0,0
16.10.2018 10:00:00 8,8 4,4 7,8 6,5 9,1 12,4 2 1 5 3 W 1020,6 18 60 0,0
16.10.2018 09:00:00 5,0 2,7 5,1 6,0 9,3 12,4 2 1 5 3 NNW 1021,5 7 50 0,0
16.10.2018 08:00:00 3,7 3,6 1,1 6,1 9,5 12,4 3 1 5 3 N 1021,4 6 0 0,0
16.10.2018 07:00:00 3,9 3,7 0,6 6,5 9,7 12,4 3 2 5 3 N 1020,8 4,3 0 0,0
16.10.2018 06:00:00 4,0 3,5 1,2 6,9 9,9 12,4 2 1 4 2 SW 1020,6 7 0 0,0
16.10.2018 05:00:00 4,5 4,0 1,7 7,3 10,2 12,4 3 2 8 4 N 1020,1 7 0 0,0
16.10.2018 04:00:00 4,9 4,2 1,8 7,7 10,4 12,4 3 1 6 3 SSW 1019,8 7 0 0,0
16.10.2018 03:00:00 5,4 4,8 1,9 8,3 10,6 12,4 0 0 5 3 N 1019,5 6 0 0,0
16.10.2018 02:00:00 6,3 5,3 2,9 8,8 10,8 12,4 0 0 4 2 N 1019,2 12 0 0,0
16.10.2018 01:00:00 7,4 6,5 3,8 9,3 11,0 12,4 0 0 5 3 N 1018,8 14 0 0,0
16.10.2018 00:00:00 8,6 6,9 5,0 9,9 11,1 12,4 3 2 6 3 SE 1018,4 15 0 0,0
15.10.2018 23:00:00 9,2 7,1 5,2 10,6 11,2 12,4 3 1 7 4 W 1018,0 16 0 0,0
15.10.2018 22:00:00 10,2 7,6 6,4 11,3 11,3 12,4 3 2 10 6 NW 1017,5 20 0 0,0
15.10.2018 21:00:00 12,0 8,1 8,5 12,0 11,3 12,4 5 3 10 5 NNE 1016,8 24 0 0,0
15.10.2018 20:00:00 12,9 8,3 10,4 12,7 11,3 12,4 5 3 9 5 NNW 1016,6 26 0 0,0
15.10.2018 19:00:00 14,5 8,0 12,1 13,3 11,1 12,4 6 3 8 5 N 1016,2 27 9 0,0
15.10.2018 18:00:00 17,6 6,9 16,2 13,7 10,9 12,4 3 2 8 4 NNE 1015,2 42 27 0,0
15.10.2018 17:00:00 19,0 5,7 17,4 14,0 10,6 12,4 4 2 12 6 S 1014,8 41 23 0,0
15.10.2018 16:00:00 19,3 4,9 19,0 13,6 10,4 12,4 5 3 13 7 SSW 1015,0 44 19 0,0
15.10.2018 15:00:00 18,9 6,3 19,4 12,9 10,1 12,4 5 3 14 7 SW 1015,3 40 3 0,0
15.10.2018 14:00:00 18,3 5,1 17,9 12,6 9,9 12,4 8 4 18 10 SE 1015,6 49 6 0,0
15.10.2018 13:00:00 17,3 7,2 18,3 11,5 9,7 12,4 3 2 5 3 NW 1016,2 40 1 0,0
15.10.2018 12:00:00 15,6 7,0 15,9 10,3 9,6 12,4 3 1 6 3 WNW 1016,7 37 21 0,0
15.10.2018 11:00:00 13,9 5,4 15,2 8,5 9,7 12,4 2 1 5 3 W 1017,1 31 48 0,0
15.10.2018 10:00:00 8,5 4,3 9,0 7,5 9,9 12,4 3 2 6 4 S 1018,7 22 42 0,0
15.10.2018 09:00:00 6,4 3,1 5,7 7,1 10,1 12,4 4 2 6 3 SSE 1019,1 19 40 0,0
15.10.2018 08:00:00 5,1 3,3 1,6 7,4 10,3 12,4 3 1 7 4 ESE 1019,0 26 0 0,0
15.10.2018 07:00:00 5,7 3,3 2,2 7,8 10,5 12,4 3 2 9 5 S 1018,7 32 0 0,0
15.10.2018 06:00:00 5,9 3,4 3,2 8,2 10,7 12,4 4 2 8 4 WNW 1018,4 40 0 0,0
15.10.2018 05:00:00 6,1 3,4 3,7 8,5 11,0 12,4 4 2 9 5 NW 1018,3 34 0 0,0
15.10.2018 04:00:00 7,6 4,0 4,4 9,0 11,2 12,4 4 2 13 7 N 1017,9 40 0 0,0
15.10.2018 03:00:00 8,8 4,3 5,9 9,4 11,4 12,4 5 3 12 6 NW 1017,7 45 0 0,0
15.10.2018 02:00:00 9,7 3,6 5,8 9,9 11,6 12,4 5 3 14 8 N 1017,1 46 0 0,0
15.10.2018 01:00:00 10,3 3,9 7,0 10,4 11,8 12,4 7 4 11 6 NNW 1017,0 46 0 0,0
15.10.2018 00:00:00 12,6 4,3 7,5 11,0 12,0 12,4 5 3 9 5 N 1016,1 50 0 0,0
14.10.2018 23:00:00 13,6 4,5 8,1 11,6 12,1 12,4 5 3 14 8 N 1016,0 51 0 0,0
14.10.2018 22:00:00 13,9 4,5 9,7 12,2 12,2 12,5 5 3 24 13 NNE 1015,8 47 0 0,0
14.10.2018 21:00:00 16,7 4,1 12,4 12,8 12,2 12,5 7 4 31 17 E 1015,1 47 0 0,0
14.10.2018 20:00:00 17,8 5,0 13,5 13,6 12,2 12,5 7 4 24 13 ESE 1014,7 52 0 0,0
14.10.2018 19:00:00 16,7 5,7 10,4 14,6 12,0 12,5 5 3 14 7 NNE 1015,0 39 14 0,0
14.10.2018 18:00:00 20,1 4,5 17,1 15,3 11,7 12,5 6 3 24 13 ESE 1013,8 43 60 0,0
14.10.2018 17:00:00 21,4 4,9 21,9 15,7 11,3 12,5 12 6 25 13 ESE 1013,7 42 60 0,0
14.10.2018 16:00:00 22,4 4,0 24,3 15,6 10,8 12,5 13 7 25 13 SSE 1013,6 29 60 0,0
14.10.2018 15:00:00 22,2 3,9 24,0 15,1 10,4 12,5 11 6 26 14 SSE 1013,9 24 60 0,0
14.10.2018 14:00:00 21,5 2,6 22,9 14,1 10,0 12,5 12 7 25 14 SSE 1014,6 25 60 0,0
14.10.2018 13:00:00 20,7 3,5 22,4 12,7 9,7 12,5 16 8 31 17 SE 1015,2 19 60 0,0
14.10.2018 12:00:00 19,7 4,5 21,1 11,1 9,6 12,5 8 4 13 7 SSW 1016,0 23 60 0,0
14.10.2018 11:00:00 17,1 8,4 17,7 9,0 9,7 12,5 4 2 8 5 NNW 1016,8 29 60 0,0
14.10.2018 10:00:00 10,1 4,5 10,2 7,3 9,8 12,5 2 1 7 4 NNW 1018,8 22 60 0,0
14.10.2018 09:00:00 6,3 2,3 6,1 6,6 10,1 12,5 0 0 9 5 N 1020,2 19 53 0,0
14.10.2018 08:00:00 4,0 3,0 1,0 6,8 10,3 12,5 3 2 5 3 WSW 1020,8 13 0 0,0
14.10.2018 07:00:00 4,0 3,0 0,8 7,2 10,6 12,5 0 0 7 4 N 1020,8 11 0 0,0
14.10.2018 06:00:00 4,9 3,9 1,4 7,6 10,8 12,5 3 1 9 5 S 1021,1 13 0 0,0
14.10.2018 05:00:00 5,0 3,8 1,9 8,1 11,1 12,5 3 2 6 4 NNW 1021,0 12 0 0,0
14.10.2018 04:00:00 5,5 4,3 2,3 8,6 11,4 12,5 3 2 8 5 NNW 1021,1 14 0 0,0
14.10.2018 03:00:00 6,2 4,7 3,5 9,2 11,6 12,5 5 3 10 5 S 1021,2 11 0 0,0
14.10.2018 02:00:00 7,4 5,6 3,9 9,7 11,9 12,5 4 2 9 5 N 1021,0 12 0 0,0
14.10.2018 01:00:00 7,7 5,9 4,6 10,3 12,1 12,5 4 2 9 5 NNW 1021,4 14 0 0,0
14.10.2018 00:00:00 8,4 6,4 4,1 11,0 12,3 12,5 4 2 9 5 NNW 1021,1 13 0 0,0
13.10.2018 23:00:00 9,9 7,1 6,0 11,8 12,5 12,5 4 2 9 5 WNW 1021,1 14 0 0,0
13.10.2018 22:00:00 10,6 7,7 6,2 12,6 12,6 12,5 4 2 13 7 WNW 1021,1 15 0 0,0
13.10.2018 21:00:00 13,6 8,1 10,1 13,4 12,7 12,5 10 5 15 8 NNE 1020,6 21 0 0,0
13.10.2018 20:00:00 15,7 8,1 11,3 14,3 12,7 12,5 7 4 18 10 NNE 1020,6 21 0 0,0
13.10.2018 19:00:00 16,5 8,9 13,2 15,2 12,5 12,5 9 5 13 7 NNE 1020,5 20 18 0,0
13.10.2018 18:00:00 19,6 7,2 17,5 16,0 12,2 12,5 6 3 20 11 NNE 1019,7 29 60 0,0
13.10.2018 17:00:00 22,5 2,6 22,7 16,4 11,8 12,5 9 5 19 10 SE 1019,2 46 60 0,0
13.10.2018 16:00:00 23,5 1,1 24,9 16,5 11,3 12,5 13 7 26 14 SSE 1019,1 51 60 0,0
13.10.2018 15:00:00 23,9 0,5 25,1 16,2 10,8 12,5 12 6 22 12 SSE 1019,5 38 60 0,0
13.10.2018 14:00:00 24,2 -1,8 25,1 15,3 10,4 12,5 6 3 13 7 S 1020,1 44 60 0,0
13.10.2018 13:00:00 22,7 5,7 24,3 13,9 10,1 12,5 5 3 9 5 SW 1021,2 37 60 0,0
13.10.2018 12:00:00 20,0 7,8 21,5 12,0 9,9 12,5 4 2 7 4 SW 1022,8 31 60 0,0
13.10.2018 11:00:00 16,0 8,2 17,5 10,0 9,9 12,5 4 2 6 4 WSW 1024,3 30 60 0,0
13.10.2018 10:00:00 11,7 6,5 11,5 8,3 10,1 12,5 2 1 4 2 W 1026,1 19 60 0,0
13.10.2018 09:00:00 7,8 4,8 7,7 7,6 10,3 12,5 0 0 6 3 N 1027,6 15 54 0,0
13.10.2018 08:00:00 5,5 5,1 3,0 7,7 10,5 12,5 2 1 6 4 NNW 1028,0 6 0 0,0
13.10.2018 07:00:00 5,8 5,8 3,0 8,0 10,7 12,5 3 1 7 4 E 1027,9 7 0 0,0
13.10.2018 06:00:00 5,7 5,7 2,7 8,4 11,0 12,5 0 0 5 3 N 1028,0 5 0 0,0
13.10.2018 05:00:00 6,1 5,6 3,4 8,9 11,2 12,5 0 0 6 4 N 1027,8 4,1 0 0,0
13.10.2018 04:00:00 6,7 6,5 3,7 9,3 11,4 12,5 2 1 6 4 NNE 1027,8 8 0 0,0
13.10.2018 03:00:00 7,2 6,8 4,4 9,8 11,6 12,5 4 2 5 3 SE 1027,8 11 0 0,0
13.10.2018 02:00:00 7,9 7,3 5,1 10,3 11,9 12,5 0 0 5 3 N 1027,8 12 0 0,0
13.10.2018 01:00:00 8,4 7,3 5,4 10,9 12,1 12,5 4 2 5 3 SE 1027,9 13 0 0,0
13.10.2018 00:00:00 9,2 7,8 5,8 11,5 12,2 12,5 3 2 7 4 ESE 1027,8 18 0 0,0
12.10.2018 23:00:00 10,0 8,3 6,6 12,1 12,4 12,5 3 2 6 3 SSE 1027,8 20 0 0,0
12.10.2018 22:00:00 10,8 8,0 7,6 12,8 12,5 12,5 4 2 7 4 NE 1027,5 24 0 0,0
12.10.2018 21:00:00 12,2 9,0 8,4 13,7 12,5 12,5 4 2 8 5 S 1026,9 17 0 0,0
12.10.2018 20:00:00 13,6 9,2 9,8 14,6 12,4 12,5 4 2 8 4 NNE 1025,9 34 0 0,0
12.10.2018 19:00:00 15,2 9,4 11,1 15,6 12,2 12,5 3 1 6 3 NNW 1024,9 41 19 0,0
12.10.2018 18:00:00 21,4 8,9 19,1 16,2 11,9 12,5 4 2 12 6 WSW 1023,3 47 60 0,0
12.10.2018 17:00:00 22,6 7,1 23,4 16,5 11,4 12,5 7 4 14 8 SSW 1022,7 56 60 0,0
12.10.2018 16:00:00 23,1 6,4 25,1 16,5 10,9 12,5 9 5 15 8 SW 1022,7 49 60 0,0
12.10.2018 15:00:00 23,2 6,4 24,6 15,9 10,4 12,5 9 5 16 9 WSW 1022,5 31 60 0,0
12.10.2018 14:00:00 22,4 6,4 24,0 14,9 10,0 12,5 5 3 11 6 SSW 1022,8 50 60 0,0
12.10.2018 13:00:00 21,5 6,9 22,7 13,4 9,7 12,5 2 1 10 5 S 1023,5 34 60 0,0
12.10.2018 12:00:00 18,7 5,7 20,4 11,5 9,5 12,5 4 2 8 4 W 1024,4 35 60 0,0
12.10.2018 11:00:00 14,9 6,6 16,7 9,6 9,5 12,5 5 3 8 4 WSW 1025,1 27 60 0,0
12.10.2018 10:00:00 9,2 5,8 10,4 8,4 9,6 12,5 2 1 8 4 NNW 1026,1 21 7 0,0
12.10.2018 09:00:00 7,9 5,1 8,4 8,0 9,7 12,5 4 2 8 4 S 1025,8 22 9 0,0
12.10.2018 08:00:00 6,0 4,0 5,7 7,7 9,8 12,5 3 2 6 3 NNW 1025,5 20 0 0,0
12.10.2018 07:00:00 6,2 4,2 5,2 7,6 10,0 12,5 3 2 5 3 ESE 1025,0 20 0 0,0
12.10.2018 06:00:00 5,0 3,4 4,2 7,5 10,2 12,5 3 1 6 3 NNW 1024,5 18 0 0,0
12.10.2018 05:00:00 4,8 3,3 3,0 7,6 10,4 12,5 3 2 5 3 S 1023,9 20 0 0,0
12.10.2018 04:00:00 4,7 3,1 3,0 7,8 10,7 12,5 2 1 4 2 N 1023,3 21 0 0,0
12.10.2018 03:00:00 5,1 3,3 1,9 8,2 10,9 12,5 0 0 4 2 NW 1023,0 24 0 0,0

tt = temperature
td = dewpoint
tt 5cm = temperature 5cm
tt -5cm = temperature -5cm
tt -20cm = temperature -20cm
tt -100cm = temperature -100cm
ff = wind speed
fx = gusts
dd = wind direction
ppp = reduced air pressure
vv = visibility
sd = sunshine duration
rr = precipitation

Next stations